sat.trackr.live / text

‹ back to catalog

ONEWEB-0429

NORAD 50500 · 2021-132AH

PAYLOAD ACTIVE UNKNOWN

§ Identity

Operator
Country
UK
Launch date
2021-12-27
Launch site
TYMSC
Launch vehicle
Mass (kg)
RCS (m²)

Purposes: comms

External: N2YO · Heavens-Above · Gunter

§ Orbital elements

Epoch: 2026-05-25T01:04:59.477376Z

Period
109.20 min
Inclination
87.9162°
Eccentricity
0.0001722
Mean motion
13.18688897 rev/d
Perigee alt
1,188.4 km
Apogee alt
1,191.0 km
Semi-major
7,567.9 km
B*
8.3468e-5
RAAN
340.0658°
Arg perigee
85.5254°
Mean anomaly
274.6074°
Rev number
21,853

§ Raw data

ONEWEB-04291 50500U 21132AH  26145.04513284  .00000046  00000+0  83468-4 0  99962 50500  87.9162 340.0658 0001722  85.5254 274.6074 13.18688897218530

JSON: /api/v1/satellites/50500 · /tle

For live sub-satellite position, see the globe view (requires WebGL).

§ Visibility from observer

Set your observer location to see the next 7 days of passes ≥ 10°. The values pass through the URL so the page stays shareable.

No JS? Fill the form by hand. The geolocation button needs JavaScript.